DW2447 Weather Reports


time (UTC)temp
F
wind
direction
speed
knots
gust
knots
rain 1hr
in
rain 24hr
in
rain mn
in
humidity
%
barometer
mb
20260906105214 72 91 0.0 0.0 0.00 0.00 0.00 98 1011.5
20260906104713 72 91 0.0 0.0 0.00 0.00 0.00 98 1011.5
20260906104212 72 91 0.0 0.0 0.00 0.00 0.00 98 1011.5
20260906103710 72 91 0.0 0.0 0.00 0.00 0.00 98 1011.7
20260906103205 72 91 0.0 0.0 0.00 0.00 0.00 97 1011.5
20260906102701 72 92 0.0 0.0 0.00 0.00 0.00 97 1011.6
20260906102159 72 85 0.0 0.0 0.00 0.00 0.00 97 1011.6
20260906101654 73 85 0.0 0.0 0.00 0.00 0.00 97 1011.5
20260906101149 73 85 0.0 0.0 0.00 0.00 0.00 97 1011.2
20260906100644 73 84 0.0 0.0 0.00 0.00 0.00 97 1011.3
20260906100139 73 85 0.0 0.0 0.00 0.00 0.00 97 1011.1
20260906095634 73 85 0.0 0.0 0.00 0.00 0.00 97 1011.1
20260906095129 73 85 0.0 0.0 0.00 0.00 0.00 97 1011.1
20260906094628 73 85 0.0 0.0 0.00 0.00 0.00 97 1011.3
20260906094124 73 86 0.0 0.0 0.00 0.00 0.00 97 1011.0
20260906093621 73 84 0.0 0.0 0.00 0.00 0.00 97 1010.8
20260906093120 73 84 0.0 0.0 0.00 0.00 0.00 97 1010.7
20260906092615 73 84 0.0 0.0 0.00 0.00 0.00 97 1010.8
20260906092110 73 84 0.0 0.0 0.00 0.00 0.00 96 1010.7
20260906091606 73 84 0.0 0.0 0.00 0.00 0.00 97 1010.6
20260906091103 73 85 0.0 0.0 0.00 0.00 0.00 97 1010.8
20260906090603 73 82 0.0 0.0 0.00 0.00 0.00 97 1010.6
20260906085602 73 81 0.0 0.0 0.00 0.00 0.00 97 1010.7
20260906085056 73 82 0.0 0.0 0.00 0.00 0.00 97 1010.7
20260906084551 73 83 0.0 0.0 0.00 0.00 0.00 97 1010.8
20260906084050 73 83 0.0 0.0 0.00 0.00 0.00 97 1010.5
20260906083546 73 83 0.0 0.0 0.00 0.00 0.00 97 1010.9
20260906083045 73 83 0.0 0.0 0.00 0.00 0.00 96 1010.8
20260906082540 73 83 0.0 0.0 0.00 0.00 0.00 96 1010.9
20260906082036 73 83 0.0 0.0 0.00 0.00 0.00 96 1011.0
20260906081532 73 83 0.0 0.0 0.00 0.00 0.00 96 1010.9
20260906081027 73 83 0.0 0.0 0.00 0.00 0.00 96 1011.0
20260906080524 73 83 0.0 0.0 0.00 0.00 0.00 96 1010.9
20260906080019 73 83 0.0 0.0 0.00 0.00 0.00 96 1011.3
20260906075513 73 83 0.0 0.0 0.00 0.00 0.00 96 1011.2
20260906075008 73 83 0.0 0.0 0.00 0.00 0.00 96 1010.9
20260906074503 73 84 0.0 0.0 0.00 0.00 0.00 96 1011.0
20260906074001 73 81 0.0 0.0 0.00 0.00 0.00 96 1011.2
20260906073456 73 80 0.0 0.0 0.00 0.00 0.00 96 1011.2
20260906072953 73 80 0.0 0.0 0.00 0.00 0.00 95 1011.2
20260906072448 73 80 0.0 0.0 0.00 0.00 0.00 95 1011.1
20260906071943 73 81 0.0 0.0 0.00 0.00 0.00 95 1011.2
20260906071439 73 81 0.0 0.0 0.00 0.00 0.00 94 1011.4
20260906070935 73 81 0.0 0.0 0.00 0.00 0.00 94 1011.3
20260906070431 73 81 0.0 0.0 0.00 0.00 0.00 94 1011.5
20260906065926 74 81 0.0 0.0 0.00 0.00 0.00 94 1011.5
20260906065421 74 80 0.0 0.0 0.00 0.00 0.00 94 1011.4
20260906064916 74 80 0.0 0.0 0.00 0.00 0.00 94 1011.4
20260906064412 74 81 0.0 0.0 0.00 0.00 0.00 93 1011.6
20260906063907 74 81 0.0 0.0 0.00 0.00 0.00 93 1011.7
20260906063402 74 81 0.0 0.0 0.00 0.00 0.00 93 1011.6
20260906062857 74 81 0.0 0.0 0.00 0.00 0.00 93 1011.7
20260906062356 74 81 0.0 0.0 0.00 0.00 0.00 92 1011.9
20260906061852 74 81 0.0 0.0 0.00 0.00 0.00 92 1011.8
20260906061348 74 81 0.0 0.0 0.00 0.00 0.00 92 1011.7
20260906060843 74 81 0.0 0.0 0.00 0.00 0.00 91 1011.5
20260906060340 75 81 0.0 0.0 0.00 0.00 0.00 91 1011.6
20260906055836 75 81 0.0 0.0 0.00 0.00 0.00 91 1011.7
20260906055331 75 81 0.0 0.0 0.00 0.00 0.00 90 1011.4
20260906054827 75 81 0.0 0.0 0.00 0.00 0.00 90 1011.5
20260906054321 75 81 0.0 0.0 0.00 0.00 0.00 90 1011.5
20260906053818 75 81 0.0 0.0 0.00 0.00 0.00 89 1011.6
20260906053313 75 81 0.0 0.0 0.00 0.00 0.00 89 1011.7
20260906052808 75 81 0.0 0.0 0.00 0.00 0.00 89 1011.6
20260906052306 75 81 0.0 0.0 0.00 0.00 0.00 88 1011.8
20260906051802 75 81 0.0 0.0 0.00 0.00 0.00 88 1011.6
20260906051301 76 72 0.0 0.0 0.00 0.00 0.00 89 1011.8
20260906050756 75 85 0.0 0.9 0.00 0.00 0.00 89 1011.9
20260906050252 75 79 0.0 0.0 0.00 0.00 0.00 89 1011.9
20260906045750 76 80 0.0 0.0 0.00 0.00 0.00 89 1012.2
20260906045245 76 80 0.0 0.0 0.00 0.00 0.00 88 1012.1
20260906044741 76 80 0.0 0.0 0.00 0.00 0.00 88 1012.2
20260906044236 76 76 0.0 0.0 0.00 0.00 0.00 89 1012.1
20260906043732 76 76 0.0 0.0 0.00 0.00 0.00 89 1012.3
20260906043228 76 76 0.0 0.0 0.00 0.00 0.00 89 1012.4
20260906042727 76 82 0.0 0.0 0.00 0.00 0.00 89 1012.2
20260906042226 76 76 0.0 0.0 0.00 0.00 0.00 89 1012.3
20260906041722 76 76 0.0 0.0 0.00 0.00 0.00 89 1012.3
20260906041217 77 75 0.0 0.0 0.00 0.00 0.00 89 1012.3
20260906040713 77 75 0.0 0.0 0.00 0.00 0.00 88 1012.3
20260906040208 77 80 0.0 0.0 0.00 0.00 0.00 89 1012.2
20260906035704 77 70 0.0 0.9 0.00 0.00 0.00 89 1012.5
20260906035159 77 69 0.9 0.9 0.00 0.00 0.00 90 1012.4
20260906034659 77 74 0.0 0.9 0.00 0.00 0.00 90 1012.3
20260906034154 77 72 0.9 0.9 0.00 0.00 0.00 91 1012.3
20260906033649 77 75 0.0 0.0 0.00 0.00 0.00 91 1012.3
20260906033143 77 78 0.0 0.0 0.00 0.00 0.00 91 1012.3
20260906032640 77 81 0.0 0.0 0.00 0.00 0.00 92 1012.4
20260906032140 77 72 0.0 0.0 0.00 0.00 0.00 92 1012.5
20260906031636 77 73 0.0 0.0 0.00 0.00 0.00 92 1012.3
20260906031131 77 73 0.0 0.0 0.00 0.00 0.00 91 1012.4
20260906030630 77 72 0.0 0.0 0.00 0.00 0.00 91 1012.3
20260906030126 77 80 0.0 0.0 0.00 0.00 0.00 90 1012.3
20260906025625 78 75 0.9 0.9 0.00 0.00 0.00 90 1012.2
20260906025124 78 76 0.9 0.9 0.00 0.00 0.00 89 1012.3
20260906024619 78 77 0.0 0.0 0.00 0.00 0.00 88 1012.2
20260906024113 78 72 0.9 0.9 0.00 0.00 0.00 88 1012.2
20260906023610 78 74 0.0 0.0 0.00 0.00 0.00 87 1012.0
20260906023109 78 79 0.0 0.0 0.00 0.00 0.00 87 1011.9
20260906022605 78 78 0.0 0.0 0.00 0.00 0.00 86 1011.7
20260906022100 79 70 0.9 0.9 0.00 0.00 0.00 86 1011.6
20260906021556 79 89 0.0 0.9 0.00 0.00 0.00 85 1011.3
20260906021055 79 91 0.0 0.0 0.00 0.00 0.00 85 1011.6
20260906020554 79 55 0.9 1.7 0.00 0.00 0.00 85 1011.5
20260906020054 79 86 0.0 0.0 0.00 0.00 0.00 84 1011.2
20260906015548 79 110 0.9 0.9 0.00 0.00 0.00 83 1011.4
20260906015048 79 115 1.7 1.7 0.00 0.00 0.00 83 1011.4
20260906014542 79 82 0.0 0.0 0.00 0.00 0.00 83 1011.5
20260906014038 79 59 1.7 1.7 0.00 0.00 0.00 84 1011.5
20260906013533 80 40 2.6 2.6 0.00 0.00 0.00 84 1010.9
20260906013029 79 90 0.0 0.0 0.00 0.00 0.00 82 1009.6
20260906012524 79 95 0.0 0.0 0.00 0.00 0.00 82 1009.3
20260906012023 78 90 0.0 0.0 0.00 0.00 0.00 83 1009.4
20260906011520 79 134 0.9 1.7 0.00 0.00 0.00 83 1010.0
20260906011019 79 107 0.9 0.9 0.00 0.00 0.00 82 1010.1
20260906010514 79 88 0.0 0.0 0.00 0.00 0.00 82 1010.5
20260906010011 79 88 0.0 0.0 0.00 0.00 0.00 81 1010.9
20260906005510 79 88 0.0 0.0 0.00 0.00 0.00 82 1011.1
20260906005009 80 108 0.9 0.9 0.00 0.00 0.00 81 1011.4
20260906004503 80 83 0.0 0.0 0.00 0.00 0.00 78 1011.6
20260906003958 81 73 0.0 0.9 0.00 0.00 0.00 77 1012.0
20260906003453 82 81 0.0 0.0 0.00 0.00 0.00 74 1012.1
20260906002948 85 60 0.9 0.9 0.00 0.00 0.00 69 1012.5
20260906002443 86 28 2.6 4.3 0.00 0.00 0.00 69 1012.3
20260906001938 86 45 1.7 2.6 0.00 0.00 0.00 77 1012.0
20260906001434 86 80 1.7 1.7 0.00 0.00 0.00 83 1012.0
20260906000929 86 73 0.9 0.9 0.00 0.00 0.00 85 1012.1
20260906000425 86 69 0.9 0.9 0.00 0.00 0.00 86 1012.1
20260905235919 87 91 0.0 0.0 0.00 0.00 0.00 84 1011.5
20260905235418 87 103 0.0 0.0 0.00 0.00 0.00 84 1011.7
20260905234914 87 90 0.0 0.0 0.00 0.00 0.00 83 1012.0
20260905234409 87 90 0.0 0.0 0.00 0.00 0.00 83 1011.8
20260905233904 87 97 0.0 0.9 0.00 0.00 0.00 82 1011.5
20260905233359 88 94 0.0 0.0 0.00 0.00 0.00 81 1011.6
20260905232858 88 120 0.9 1.7 0.00 0.00 0.00 81 1011.5
20260905232354 88 86 0.0 0.0 0.00 0.00 0.00 80 1011.9
20260905231849 88 92 0.0 0.0 0.00 0.00 0.00 80 1011.6
20260905231344 89 92 0.0 0.0 0.00 0.00 0.00 80 1011.6
20260905230841 89 87 0.0 0.0 0.00 0.00 0.00 80 1011.6
20260905230339 89 78 0.0 0.0 0.00 0.00 0.00 79 1011.7
20260905225838 89 93 0.0 0.0 0.00 0.00 0.00 79 1011.5
20260905225334 89 102 0.9 0.9 0.00 0.00 0.00 78 1011.3
20260905224828 90 88 0.0 0.0 0.00 0.00 0.00 77 1011.3
20260905224324 90 79 0.9 0.9 0.00 0.00 0.00 77 1011.1
20260905223818 90 106 0.9 0.9 0.00 0.00 0.00 77 1011.0
20260905223316 90 90 0.0 0.9 0.00 0.00 0.00 77 1011.2
20260905222811 90 116 0.9 0.9 0.00 0.00 0.00 76 1011.2
20260905222309 91 113 0.9 0.9 0.00 0.00 0.00 75 1011.0
20260905221806 92 136 0.9 1.7 0.00 0.00 0.00 70 1010.8
20260905221302 93 220 2.6 4.3 0.00 0.00 0.00 62 1011.1
20260905220758 93 102 0.0 0.9 0.00 0.00 0.00 62 1010.7
20260905220254 93 99 0.9 0.9 0.00 0.00 0.00 62 1010.7
20260905215753 93 159 2.6 2.6 0.00 0.00 0.00 60 1010.6
20260905215249 94 89 0.0 0.0 0.00 0.00 0.00 62 1011.0
20260905214744 94 86 0.0 0.0 0.00 0.00 0.00 62 1010.8
20260905214240 94 95 0.0 0.0 0.00 0.00 0.00 61 1010.9
20260905213735 94 103 0.0 0.0 0.00 0.00 0.00 61 1010.7
20260905213231 94 281 1.7 2.6 0.00 0.00 0.00 59 1010.8
20260905212727 94 79 0.0 0.0 0.00 0.00 0.00 61 1010.6
20260905212226 94 80 0.0 0.0 0.00 0.00 0.00 60 1010.7
20260905211725 93 98 0.0 0.0 0.00 0.00 0.00 59 1010.7
20260905211221 94 72 0.9 0.9 0.00 0.00 0.00 59 1010.8
20260905210718 94 83 0.0 0.0 0.00 0.00 0.00 58 1010.4
20260905210217 94 82 0.0 0.0 0.00 0.00 0.00 62 1010.7
20260905205716 93 77 0.9 0.9 0.00 0.00 0.00 62 1010.6
20260905205211 93 72 0.0 0.9 0.00 0.00 0.00 61 1010.5
20260905204711 93 86 0.0 0.0 0.00 0.00 0.00 62 1010.4
20260905204206 94 65 0.9 0.9 0.00 0.00 0.00 63 1010.3
20260905203700 93 66 0.9 0.9 0.00 0.00 0.00 60 1010.5
20260905203156 94 53 2.6 2.6 0.00 0.00 0.00 60 1010.4
20260905202651 94 92 0.0 0.9 0.00 0.00 0.00 60 1010.2
20260905202146 94 77 0.9 0.9 0.00 0.00 0.00 61 1010.5
20260905201642 94 74 0.9 0.9 0.00 0.00 0.00 61 1010.5
20260905201141 95 75 0.0 0.0 0.00 0.00 0.00 61 1010.6
20260905200637 96 79 0.0 0.0 0.00 0.00 0.00 58 1010.4
20260905200132 96 92 0.0 0.0 0.00 0.00 0.00 57 1010.8
20260905195630 95 91 0.0 0.9 0.00 0.00 0.00 60 1010.6
20260905195126 95 71 0.9 0.9 0.00 0.00 0.00 60 1010.8
20260905194621 95 64 0.9 0.9 0.00 0.00 0.00 60 1010.7
20260905194120 96 72 0.9 0.9 0.00 0.00 0.00 58 1011.0
20260905193615 95 178 1.7 1.7 0.00 0.00 0.00 59 1010.8
20260905193110 95 71 0.9 1.7 0.00 0.00 0.00 59 1011.1
20260905192606 96 59 0.9 0.9 0.00 0.00 0.00 60 1011.1
20260905192102 95 53 1.7 1.7 0.00 0.00 0.00 60 1011.0
20260905191600 95 84 0.0 0.9 0.00 0.00 0.00 61 1011.1
20260905191059 93 92 0.0 0.0 0.00 0.00 0.00 61 1011.2
20260905190557 95 61 0.9 1.7 0.00 0.00 0.00 61 1011.6
20260905190056 95 32 2.6 2.6 0.00 0.00 0.00 61 1011.6
20260905185555 95 111 0.9 1.7 0.00 0.00 0.00 60 1011.6
20260905185050 94 100 0.9 0.9 0.00 0.00 0.00 62 1012.0
20260905184545 94 92 0.0 0.0 0.00 0.00 0.00 60 1011.8
20260905184044 94 79 1.7 1.7 0.00 0.00 0.00 63 1011.9
20260905183543 92 78 0.0 0.0 0.00 0.00 0.00 63 1012.3
20260905183039 92 66 0.9 0.9 0.00 0.00 0.00 64 1012.4
20260905182538 93 77 0.9 0.9 0.00 0.00 0.00 67 1012.2
20260905182033 92 92 0.0 0.0 0.00 0.00 0.00 67 1012.4
20260905181527 93 55 3.5 4.3 0.00 0.00 0.00 64 1012.4
20260905181027 94 98 0.0 0.9 0.00 0.00 0.00 63 1012.4
20260905180522 94 95 0.9 0.9 0.00 0.00 0.00 64 1012.6
20260905180017 94 46 2.6 2.6 0.00 0.00 0.00 64 1012.5
20260905175516 94 147 1.7 1.7 0.00 0.00 0.00 63 1012.8
20260905175012 94 101 0.0 0.9 0.00 0.00 0.00 63 1012.6
20260905174507 94 86 0.0 0.0 0.00 0.00 0.00 63 1012.6
20260905174003 94 110 2.6 2.6 0.00 0.00 0.00 63 1012.8
20260905173459 93 72 0.9 1.7 0.00 0.00 0.00 68 1012.8
20260905172954 93 77 0.9 1.7 0.00 0.00 0.00 69 1013.0
20260905172452 92 96 0.0 0.9 0.00 0.00 0.00 70 1012.8
20260905171948 92 46 0.9 0.9 0.00 0.00 0.00 68 1013.0
20260905171444 92 103 1.7 1.7 0.00 0.00 0.00 69 1013.2
20260905170940 92 209 3.5 4.3 0.00 0.00 0.00 68 1013.3
20260905170436 92 132 1.7 2.6 0.00 0.00 0.00 68 1013.4
20260905165936 94 97 0.0 0.9 0.00 0.00 0.00 66 1013.3
20260905165431 93 104 0.9 0.9 0.00 0.00 0.00 69 1013.3
20260905164926 92 93 1.7 1.7 0.00 0.00 0.00 70 1013.5
20260905164420 91 138 0.9 1.7 0.00 0.00 0.00 70 1013.7
20260905163915 92 156 0.0 1.7 0.00 0.00 0.00 70 1013.7
20260905163412 92 95 0.0 0.0 0.00 0.00 0.00 70 1013.8
20260905162908 91 91 0.0 0.9 0.00 0.00 0.00 69 1013.9
20260905162403 90 109 0.9 0.9 0.00 0.00 0.00 71 1014.2
20260905161857 91 172 2.6 4.3 0.00 0.00 0.00 71 1014.2
20260905161356 90 104 0.0 0.9 0.00 0.00 0.00 76 1014.0
20260905160854 90 67 0.9 0.9 0.00 0.00 0.00 74 1014.2
20260905160349 89 37 2.6 4.3 0.00 0.00 0.00 74 1014.1
20260905155843 87 171 1.7 1.7 0.00 0.00 0.00 77 1014.3
20260905155343 87 27 1.7 2.6 0.00 0.00 0.00 77 1014.6
20260905154842 90 53 2.6 2.6 0.00 0.00 0.00 74 1014.6
20260905154338 89 122 0.9 0.9 0.00 0.00 0.00 73 1014.5
20260905153833 89 105 0.9 0.9 0.00 0.00 0.00 77 1014.5
20260905153330 89 126 1.7 1.7 0.00 0.00 0.00 75 1014.6
20260905152829 89 67 0.0 0.9 0.00 0.00 0.00 75 1014.6
20260905152328 89 111 0.9 0.9 0.00 0.00 0.00 75 1014.7
20260905151824 90 78 0.0 0.9 0.00 0.00 0.00 75 1014.7
20260905151319 90 70 0.9 0.9 0.00 0.00 0.00 75 1014.7
20260905150813 89 108 0.9 0.9 0.00 0.00 0.00 76 1014.8
20260905150308 88 68 0.0 0.9 0.00 0.00 0.00 78 1014.7
20260905145805 88 74 0.9 0.9 0.00 0.00 0.00 77 1014.6
20260905145306 88 78 0.9 0.9 0.00 0.00 0.00 79 1014.7
20260905144804 87 84 0.0 0.0 0.00 0.00 0.00 80 1014.8
20260905144300 87 47 1.7 2.6 0.00 0.00 0.00 80 1014.8
20260905143758 87 113 0.9 1.7 0.00 0.00 0.00 80 1014.8
20260905143253 86 53 0.9 0.9 0.00 0.00 0.00 82 1014.6
20260905142751 85 84 0.0 0.9 0.00 0.00 0.00 85 1014.6
20260905142246 84 64 0.9 0.9 0.00 0.00 0.00 86 1015.0
20260905141742 84 61 0.9 0.9 0.00 0.00 0.00 86 1014.9
20260905141238 84 34 1.7 2.6 0.00 0.00 0.00 86 1014.7
20260905140733 84 52 0.9 1.7 0.00 0.00 0.00 85 1014.6
20260905140227 85 81 0.0 0.9 0.00 0.00 0.00 85 1014.7
20260905135726 85 80 0.0 0.9 0.00 0.00 0.00 85 1014.9
20260905135223 84 49 1.7 1.7 0.00 0.00 0.00 86 1014.9
20260905134722 84 85 0.9 0.9 0.00 0.00 0.00 87 1015.0
20260905134221 84 55 0.9 0.9 0.00 0.00 0.00 88 1015.0
20260905133716 83 50 0.0 0.9 0.00 0.00 0.00 90 1015.0
20260905133211 82 64 1.7 1.7 0.00 0.00 0.00 91 1015.0
20260905132710 82 64 0.9 1.7 0.00 0.00 0.00 92 1015.1
20260905132206 82 52 0.9 1.7 0.00 0.00 0.00 92 1014.9
20260905131701 82 55 1.7 1.7 0.00 0.00 0.00 92 1015.1
20260905131155 82 54 0.0 0.9 0.00 0.00 0.00 93 1014.8
20260905130650 81 81 0.0 0.9 0.00 0.00 0.00 94 1015.1
20260905130149 81 63 0.9 0.9 0.00 0.00 0.00 95 1015.0
20260905125638 80 79 0.0 0.9 0.00 0.00 0.00 96 1015.0
20260905125134 80 57 1.7 2.6 0.00 0.00 0.00 96 1015.0
20260905124631 80 73 0.0 0.0 0.00 0.00 0.00 98 1015.1
20260905124127 80 88 0.0 0.0 0.00 0.00 0.00 98 1015.1
20260905123622 79 61 0.9 1.7 0.00 0.00 0.00 99 1015.2
20260905123119 79 74 0.0 0.0 0.00 0.00 0.00 99 1015.1
20260905122618 79 72 0.0 0.0 0.00 0.00 0.00 99 1014.9
20260905122119 78 75 0.0 0.0 0.00 0.00 0.00 99 1014.9
20260905121613 78 73 0.0 0.0 0.00 0.00 0.00 99 1014.7
20260905121109 78 80 0.0 0.0 0.00 0.00 0.00 99 1014.7
20260905120608 78 81 0.0 0.0 0.00 0.00 0.00 99 1014.8
20260905115556 77 80 0.0 0.0 0.00 0.00 0.00 99 1014.8
20260905115051 77 81 0.0 0.0 0.00 0.00 0.00 99 1015.0
20260905114550 77 81 0.0 0.0 0.00 0.00 0.00 99 1014.9
20260905114049 76 81 0.0 0.0 0.00 0.00 0.00 99 1014.8
20260905113544 76 81 0.0 0.0 0.00 0.00 0.00 99 1014.7
20260905113040 76 81 0.0 0.0 0.00 0.00 0.00 99 1014.8
20260905112535 76 81 0.0 0.0 0.00 0.00 0.00 99 1014.6
20260905112030 76 81 0.0 0.0 0.00 0.00 0.00 99 1014.4
20260905111525 76 81 0.0 0.0 0.00 0.00 0.00 99 1014.6
20260905111024 75 81 0.0 0.0 0.00 0.00 0.00 99 1014.7
20260905110524 76 81 0.0 0.0 0.00 0.00 0.00 99 1014.5
20260905110019 76 81 0.0 0.0 0.00 0.00 0.00 99 1014.5
20260905105519 75 81 0.0 0.0 0.00 0.00 0.00 99 1014.4